www.pogodaiklimat.ru

Погода и климат >> Архив погоды >> Бермудские Острова >> Бермуда


ПОГОДА в Бермуде

  • Прогноз погоды в Бермуде
  • Монитор погоды в Бермуде

АРХИВ ПОГОДЫ в Бермуде

Время (UTC), дата Ветер
(напр.,м/с)
 
Видим.   Явления Облачность Т
(С)
Тd
(С)
f
(%)
Тe
(С)
Тes
(С)
Комфортность P
(гПа)
Po
(гПа)
Тmin
(С)
Tmax
(С)
R
(мм)
R24
(мм)
S
(см)
18 18.06 З 5 14 км осадки на расстоянии 5/3 600 м
[Cu med, cong Ci ing]
+28.7 +23.7 74 +39 +46 очень
душно
1022.4 1022.0 +25.5 +28.7
21 18.06 З 4 14 км осадки на расстоянии 6/3 300 м
[Cu med, cong Ci ing]
+27.8 +23.5 77 +38 +40 очень
душно
1021.6 1021.2
00 19.06 ЮЗ 3 14 км {гроза, ливн. осадки} 1/1 300 м
[Cu hum]
+26.5 +22.8 80 +35 +35 очень
душно
1021.6 1021.2 +25.5 +28.7 0.0
03 19.06 ЮЗ 4 14 км осадки на расстоянии 3/3 300 м
[Cu hum]
+25.9 +23.4 86 +35 +35 очень
душно
1022.4 1022.0
06 19.06 ЮЗ 5 14 км 1/1 300 м
[Cu hum]
+26.0 +22.8 83 +35 +35 очень
душно
1021.3 1020.9 +25.5 +28.7
09 19.06 ЮЗ 4 14 км 3/1 300 м
[Cu hum Ci fib]
+25.5 +22.8 85 +34 +34 очень
душно
1021.4 1021.0
12 19.06 ЮЗ 4 14 км 1/1 300 м
[Cu hum]
+27.0 +22.5 76 +35 +40 очень
душно
1021.6 1021.2 +25.1 +28.7
15 19.06 Ю 6 14 км 3/3 600 м
[Sc]
+27.8 +22.5 73 +37 +43 очень
душно
1021.4 1021.0
18 19.06 Ю 6 14 км 3/3 300 м
[Sc]
+29.0 +24.2 75 +40 +45 очень
душно
1020.9 1020.5 +25.1 +29.1
21 19.06 Ю 7 14 км 3/3 300 м
[Sc Cs]
+28.1 +23.8 78 +39 +40 очень
душно
1020.0 1019.6
00 20.06 Ю 6 14 км 9/3 600 м
[Cu med, cong Cs]
+26.7 +24.0 85 +37 +37 очень
душно
1020.1 1019.7 +25.1 +29.6
03 20.06 ЮЗ 7 14 км слаб. ливневой дождь 9/1 300 м
[Cu hum Ac As Cs]
+24.9 +22.6 87 +33 +33 очень
душно
1020.2 1019.8
06 20.06 ЮЗ 9 14 км {ливн. осадки} 5/1 300 м
[Cu med, cong Cs]
+25.9 +23.6 87 +35 +35 очень
душно
1018.7 1018.3 +24.8 +29.6 1
09 20.06 Ю 8 14 км осадки на расстоянии 4/3 300 м
[Cu med, cong Ac cuf Cs]
+26.1 +23.6 86 +35 +35 очень
душно
1018.4 1018.0
12 20.06 ЮЗ 10 14 км 9/3 300 м
[Sc Cs]
+27.2 +24.5 85 +38 +38 очень
душно
1018.7 1018.3 +24.8 +29.6
15 20.06 ЮЗ 11 14 км гроза без осадков {ливн. осадки} 10/4 300 м
[Cb calv Ac As Cs]
+25.7 +23.2 86 +34 +35 очень
душно
1019.0 1018.6
18 20.06 ЮЗ 10 4800 м ливневой дождь {гроза} 10/6 300 м
[Cu med, cong As op]
+25.6 +23.1 86 +34 +34 очень
душно
1018.5 1018.1 +23.7 +28.3 2
21 20.06 ЮЗ 10 14 км слаб. ливневой дождь 10/6 300 м
[Cu med, cong Ac As Cs]
+25.8 +23.5 87 +35 +35 очень
душно
1017.3 1016.9
00 21.06 ЮЗ 8 14 км в посл. час ливневой дождь 9/1 300 м
[Cu med, cong Ac As Cs]
+24.2 +22.3 89 +31 +31 очень
душно
1017.3 1016.9 +23.6 +28.3 8
03 21.06 ЮЗ 9 14 км 10/3 300 м
[Cu hum Cs]
+26.0 +24.3 90 +36 +36 очень
душно
1016.5 1016.1
06 21.06 ЮЗ 11 6000 м гроза, ливневой дождь 10/6 200 м
[Cb cap Ac As]
+23.7 +23.2 97 +32 +32 очень
душно
1016.1 1015.7 +23.4 +28.3 7
09 21.06 З 11 14 км в посл. час ливневой дождь {гроза} 9/5 600 м
[Cu Sc Ac As Cs]
+26.1 +23.2 84 +35 +35 очень
душно
1015.0 1014.6
12 21.06 З 16 6000 м ливневой дождь 9/5 300 м
[Cb calv Ac As Cs]
+23.9 +22.4 91 +31 +31 очень
душно
1015.9 1015.5 +23.6 +28.3 6
15 21.06 ЮЗ 12 14 км {ливн. осадки} 9/5 300 м
[Sc Cs]
+27.8 +24.7 83 +39 +39 очень
душно
1016.2 1015.8
18 21.06 ЮЗ 14 14 км {ливн. осадки} 9/5 300 м
[Sc Ac cast Cs]
+28.3 +24.6 80 +40 +40 очень
душно
1015.7 1015.3 +23.4 +28.6 0.4
21 21.06 ЮЗ 13 14 км 9/8 300 м
[Sc Cs]
+27.8 +24.7 83 +39 +39 очень
душно
1015.0 1014.6
00 22.06 ЮЗ 12 14 км 9/5 300 м
[Sc Ac As Cs]
+26.8 +24.3 86 +37 +37 очень
душно
1014.5 1014.1 +23.6 +28.7
03 22.06 ЮЗ 12 14 км осадки на расстоянии 8/5 300 м
[Cu Sc Ac As Cs]
+26.4 +23.7 85 +36 +36 очень
душно
1014.7 1014.3
06 22.06 ЮЗ 11 14 км {ливн. осадки} 9/4 300 м
[Cb calv Ac As Cs]
+26.3 +24.4 89 +37 +37 очень
душно
1012.7 1012.3 +23.6 +28.7 0.6
09 22.06 З 9 14 км {гроза, ливн. осадки} 6/5 300 м
[Cu Sc Ac As Ci ing]
+26.0 +22.8 83 +35 +35 очень
душно
1012.5 1012.1
12 22.06 З 8 14 км {гроза, ливн. осадки} 3/1 300 м
[Cu hum Ci sp]
+26.3 +22 +23 комфорт 1013.7 1013.3 +22.2 +28.7 5
15 22.06 З 8 14 км 5/3 600 м
[Sc Cs]
+27.0 +21.9 74 +35 +37 очень
душно
1014.6 1014.2
18 22.06 З 9 14 км 9/3 300 м
[Sc Ac As Cs]
+26.8 +20.5 68 +33 +34 очень
душно
1015.1 1014.7 +22.2 +27.6
21 22.06 СЗ 7 14 км 9/1 600 м
[Cu hum Cs]
+25.8 +20.2 71 +32 +33 очень
душно
1015.0 1014.6
00 23.06 З 5 14 км 8/3 600 м
[Cu hum Cs]
+24.9 +18.7 68 +30 +30 душно 1015.6 1015.2 +22.2 +27.6
03 23.06 З 5 14 км 8/4 600 м
[Cu hum Ac As Cs]
+24.7 +19.4 72 +30 +30 очень
душно
1015.8 1015.4
06 23.06 З 5 14 км 9/8 600 м
[Cu Sc Cs]
+24.6 +19.7 74 +30 +30 очень
душно
1014.2 1013.8 +22.2 +27.6
09 23.06 ЮЗ 3 14 км в посл. час ливневой дождь 10/6 300 м
[Cu Sc Ac As Cs]
+23.0 +20.2 84 +30 +30 очень
душно
1013.0 1012.6
12 23.06 СЗ 5 14 км {ливн. осадки} 10/3 300 м
[Sc Ac As Cs]
+23.6 +20.6 83 +29 +31 душно 1013.9 1013.5 +20.4 +27.6 7
15 23.06 СЗ 7 14 км 5/3 600 м
[Sc Cs]
+25.0 +20.1 74 +31 +35 очень
душно
1014.7 1014.3
18 23.06 СЗ 6 14 км 3/3 1000 м
[Cu hum]
+26.7 +17.9 59 +31 +36 душно 1015.2 1014.8 +20.4 +26.8
21 23.06 СЗ 6 14 км 4/4 1000 м
[Cu hum]
+25.9 +17.2 59 +30 +31 душно 1015.2 1014.8
00 24.06 С 3 14 км 4/3 1000 м
[Cu hum Cs]
+24.6 +15.4 57 +28 +28 душно 1016.1 1015.7 +20.4 +26.9
03 24.06 СЗ 3 14 км 4/1 1000 м
[Cu hum Ci fib]
+24.2 +15.0 56 +27 +27 жарко 1016.8 1016.4
06 24.06 З 3 14 км 3/0
[Ci fib]
+23.8 +16.2 62 +27 +27 жарко 1016.1 1015.7 +20.4 +26.9
09 24.06 З 4 14 км осадки на расстоянии 8/5 1000 м
[Sc Ac trans Cs]
+24.2 +16.6 63 +28 +28 душно 1016.3 1015.9
12 24.06 СЗ 4 14 км осадки на расстоянии {ливн. осадки} 9/4 600 м
[Cu med, cong Ac As Cs]
+24.7 +18.3 68 +29 +31 душно 1017.6 1017.2 +23.3 +26.9 0.4
15 24.06 ЮЗ 4 14 км 4/1 1000 м
[Cu hum Ci sp]
+26.2 +16.3 54 +30 +42 душно 1017.7 1017.3
18 24.06 З 7 14 км 9/1 1000 м
[Cu hum Ci fib]
+26.1 +18.2 62 +31 +35 очень
душно
1017.1 1016.7 +13.3 +26.8
21 24.06 З 6 14 км 9/1 1000 м
[Cu hum Cs]
+25.7 +17.8 62 +30 +32 душно 1017.0 1016.6
00 25.06 З 4 14 км 9/3 1000 м
[Cu hum Cs]
+24.4 +17.8 67 +29 +29 душно 1017.6 1017.2 +23.5 +26.9
03 25.06 ЮЗ 4 14 км 8/3 1000 м
[Cu hum Cs]
+24.5 +16.1 59 +28 +28 душно 1018.5 1018.1
06 25.06 ЮЗ 3 14 км 4/1 1000 м
[Cu hum Cs]
+23.2 +17.1 69 +28 +28 душно 1017.1 1016.7 +23.0 +26.9
09 25.06 ЮЗ 4 14 км 4/1 1000 м
[Cu hum Cs]
+23.5 +16.4 64 +27 +27 душно 1017.3 1016.9
12 25.06 ЮЗ 4 14 км 4/3 1000 м
[Sc Cs]
+24.7 +17.8 65 +29 +32 душно 1018.6 1018.2 +22.9 +26.9
15 25.06 Ю 3 14 км 9/1 1000 м
[Cu hum Ac trans Cs]
+26.7 +19.2 63 +32 +40 очень
душно
1018.9 1018.5

 

Местоположение метеостанции Бермуда (Бермудские Острова): широта 32.37 долгота -64.66 высота над уровнем моря 3.4 м.

В архиве по умолчанию представлена погода в Бермуде за последнюю неделю. Архивные данные за месяц целиком и за предыдущие месяцы, начиная с января 2011 года, Вы можете получить, выбрав интересующий диапазон дат из раскрывающегося списка и нажав кнопку "Ввод!".


*Определитесь, кто Вы:
робот инопланетянин человек

Внимание! Время в таблицах - всемирное. Для получения местного времени необходимо прибавить поправку, которая равна -4 ч.

Смотрите также архив погоды в соседних городах и на ближайших метеорологических станциях:

Погода в Ярмуте (Новая Шотландия, Канада) (1281 км)
Погода в Уэстерн Хеад (Новая Шотландия, Канада) (1291 км)
Погода на Острове Бриер (Новая Шотландия, Канада) (1333 км)
Погода в Кеджимкюджике (Новая Шотландия, Канада) (1342 км)
Погода на Острове Сейбл (Новая Шотландия, Канада) (1348 км)
Погода на Острове Сейбл A (Новая Шотландия, Канада) (1351 км)
Погода в Галифаксе Osborne Head (Новая Шотландия, Канада) (1366 км)
Погода на Острове Махиас Сил (Новая Шотландия, Канада) (1366 км)
Погода в Меррите (Британская Колумбия, Канада) (1367 км)
Погода в Галифаксе Windsor Park (Новая Шотландия, Канада) (1370 км)

Пояснения к столбцам:

Ветер - указаны скорость ветра в м/с - средняя за 10 мин, порывы в срок и между сроками (в фигурных скобках) и направление, откуда дует ветер: С - северный, СВ - северо-восточный, В - восточный, ЮВ - юго-восточный, Ю - южный, ЮЗ - юго-западный, З - западный, СЗ - северо-западный.
Видимость - горизонтальная дальность видимости в метрах или километрах. При видимости от 1 до 10 км при отсутствии осадков обычно наблюдается дымка, при ухудшении видимости до 1 км и менее - туман. В сухую погоду видимость может ухудшаться дымом, пылью или мглою.
Явления - указаны атмосферные явления, наблюдавшиеся в срок или в последний час перед сроком; фигурными скобками обозначены явления, наблюдавшиеся между сроками (за 1-3 часа до срока); квадратными скобками обозначены град или гололедные отложения с указанием их диаметра в мм.
Облачность - указаны через наклонную черту общая и нижняя облачность в баллах и высота нижней границы облаков в метрах; квадратными скобками обозначены формы облаков: Ci - перистые, Cs - перисто-слоистые, Cc - перисто-кучевые, Ac - высококучевые, As - высокослоистые, Sc - слоисто-кучевые, Ns - слоисто-дождевые, Cu - кучевые, Cb - кучево-дождевые. Подробнее классификацию облаков см. в Атласе облаков (PDF).
T - Температура воздуха - температура, измеренная на высоте 2 м над землей.
Td - Температура точки росы - температура, при понижении до которой содержащийся в воздухе водяной пар достигнет насыщения.
f - Относительная влажность воздуха - влажноcть воздуха, измеренная на высоте 2 м над землей.
Te - Эффективная температура - температура, которую ощущает одетый по сезону человек в тени. Характеристика душности погоды. При расчете учитывается влияние влажности воздуха и скорости ветра на теплоощущения человека.
Tes - Эффективная температура на солнце - температура, которую ощущает человек, с поправкой на солнечный нагрев. Характеристика знойности погоды. Зависит от высоты солнца над горизонтом, облачности и скорости ветра. Ночью, в пасмурную погоду, а также при ветре 12 м/с и более поправка равна нулю.
P - Атмосферное давление - приведенное к уровню моря атмосферное давление.
Po - Атмосферное давление - измеренное на уровне метеостанции атмосферное давление.
Tmin - Минимальная температура - минимум температуры воздуха на высоте 2 м над землей.
Tmax - Максимальная температура - максимум температуры воздуха на высоте 2 м над землей.
R - Количество осадков - Количество выпавших осадков за период времени, мм. При наведении курсора мыши на число - период времени, за который выпало указанное количество осадков.
R24 - Количество осадков - Количество выпавших осадков за 24 часа, мм.
S - Снежный покров - Высота снежного покрова, см. При наведении курсора мыши на число - состояние снежного покрова и степень покрытия местности в баллах.